Zurück zum Katalog

THORAD AGENA D DEB

AktivLEO
NORAD 5635·DEBRIS·🇺🇸 United States

Gestartet Sep 30, 1969 von Vandenberg Space Force Base

Loading…

Nächste Überflüge (nächste 24 Stunden)

TLE

AktuellSource: Space-Track

Epoche: Sep 14, 2026, 06:00 UTC

1 05635U 69082JF  26257.25058181  .00001767  00000-0  49033-3 0  9999
2 05635  69.9380 340.3256 0005483 310.3728  49.6925 14.48112501881383

Verfolge THORAD AGENA D DEB in Echtzeit mit AllMySat

Download on the App Store